Regional Weather Roundup
Issued by NWS

Home | Current Version | Previous Version | Text Only | Print | Product List | Glossary On
Versions: 1 2 3 4 5 6 7 8 9 10 11 12 13 14 15 16 17 18 19 20 21 22 23 24 25 26 27 28 29 30 31 32 33 34 35 36 37 38 39 40 41 42 43 44 45 46 47 48 49 50
000
ASUS45 KPSR 230210
RWRAZ

ARIZONA HOURLY REGIONAL WEATHER ROUNDUP
NATIONAL WEATHER SERVICE PHOENIX AZ
700 PM MST THU JUN 22 2017

NOTE: FAIR INDICATES FEW OR NO CLOUDS BELOW 12,000 FEET WITH NO
SIGNIFICANT WEATHER AND/OR OBSTRUCTIONS TO VISIBILITY.

AZZ001>003-036-230300-
NORTHWEST ARIZONA

CITY           SKY/WX    TMP DP  RH WIND       PRES   REMARKS
BULLHEAD CITY  CLEAR    115  27   5 SW9       29.56S HX 106
KINGMAN        CLEAR    101  34   9 SW14G24   29.85S
$$

AZZ004>008-015-016-018-230300-
NORTH CENTRAL ARIZONA

CITY           SKY/WX    TMP DP  RH WIND       PRES   REMARKS
GRAND CANYON   CLEAR     88  16   7 W8        30.12R
PRESCOTT       CLEAR     93  27   9 W13G22    30.01R
FLAGSTAFF      CLEAR     84  25  11 W8        30.15R
PAYSON         CLEAR     93  34  12 W14G22    30.03R
PAGE           CLEAR    101  12   4 NW12G21   29.84R
$$

AZZ009>014-017-230300-
NORTHEAST ARIZONA

CITY           SKY/WX    TMP DP  RH WIND       PRES   REMARKS
WINSLOW        PTCLDY    98  27   8 W22G29    29.92R
SAINT JOHNS    PTCLDY    93  27   9 NW16G25   29.98R
WINDOW ROCK    PTCLDY    90  18   7 NW15G22   30.06R
SHOW LOW       PTCLDY    86  32  14 W16       30.09R
$$

AZZ540-542>544-546-548-230300-
GREATER PHOENIX AREA

CITY           SKY/WX    TMP DP  RH WIND       PRES   REMARKS
PHOENIX        CLEAR    110  43  10 W17       29.62S HX 104
BUCKEYE        CLEAR    106  48  14 SW13G18   29.64S HX 102
GLENDALE       PTCLDY   111  43  10 S14G20    29.64S HX 106
LUKE AFB       CLEAR    109  45  11 SW12      29.62R HX 104
DEER VALLEY    CLEAR    108  44  11 SW16      29.65R HX 103
SCOTTSDALE     CLEAR    108  43  11 SW12G22   29.67S HX 103
MESA-GATEWAY   CLEAR    108  46  12 W10       29.66S HX 103
CHANDLER       CLEAR    108  46  12 SW14      29.65R HX 103
$$

AZZ539-553-230300-
SOUTHWEST MARICOPA COUNTY AND PINAL COUNTY

CITY           SKY/WX    TMP DP  RH WIND       PRES   REMARKS
CASA GRANDE    CLEAR    107  47  13 W14       29.68S HX 103
GILA BEND      CLEAR    106  55  18 SW14      29.64R HX 105
$$

AZZ503-504-507>509-230300-
SOUTHEAST ARIZONA

CITY           SKY/WX    TMP DP  RH WIND       PRES   REMARKS
TUCSON         CLEAR    105  40  11 N10       29.80R
DAVIS-MONTHAN  CLEAR    103  38  10 NW14      29.79R
RYAN FIELD     CLEAR    106  45  12 NW13G20   29.78R HX 101
NOGALES        MOCLDY    87  52  29 SE13G22   29.95R
SIERRA VISTA   MOCLDY    92  46  20 SW18      29.99R
DOUGLAS        CLOUDY    91  47  21 W16G25    29.88R
SAFFORD        CLEAR    103  40  11 W21       29.74R
$$

AZZ532-230300-
SOUTHWEST ARIZONA

CITY           SKY/WX    TMP DP  RH WIND       PRES   REMARKS
YUMA           CLEAR    100  60  26 S12       29.63S HX 100
$$

CAZ041-043-047-048-061-525>527-560>570-230300-
SOUTHERN CALIFORNIA

CITY           SKY/WX    TMP DP  RH WIND       PRES   REMARKS
DOWNTOWN L.A.  NOT AVBL
L.A. AIRPORT   MOSUNNY   67  60  78 W10       29.82R
SAN DIEGO      CLOUDY    67  61  81 S7        29.85R
BURBANK        SUNNY     75  59  57 S7        29.80R
ONTARIO        SUNNY     81  61  50 W14       29.79R
RIVERSIDE      SUNNY     82  61  48 W12       29.79R
PALM SPRINGS   SUNNY    107  50  15 VRB7      29.64S HX 104
EL CENTRO NAS  CLEAR    100  62  28 SE7       29.60S HX 101
IMPERIAL       PTCLDY   103  60  24 SE13      29.58S HX 104
BLYTHE         CLEAR    105  64  26 S17       29.60S HX 108
NEEDLES        MOCLDY   116  26   4 SW14      29.60S HX 106
$$

NVZ020-UTZ003-230300-
SOUTHERN NEVADA-UTAH

CITY           SKY/WX    TMP DP  RH WIND       PRES   REMARKS
LAS VEGAS      MOSUNNY  110   6   2 SW18G26   29.68S HX 100
SALT LAKE CITY CLEAR     85  31  14 NW8       30.00S
$$

NMZ009-TXZ055-230300-
NEW MEXICO-WEST TEXAS

CITY           SKY/WX    TMP DP  RH WIND       PRES   REMARKS
ALBUQUERQUE    CLOUDY    97  23   7 W18       29.88R
EL PASO        PTCLDY   101  36  10 W16G23    29.75R
$$


........................KEY........................
SKY/WX - SKY CONDITION/WEATHER
TMP    - TEMPERATURE IN FAHRENHEIT
DP     - DEW POINT IN FAHRENHEIT
RH     - RELATIVE HUMIDITY IN PERCENT
WIND   - DIRECTION AND SPEED IN MILES PER HOUR (MPH)
VRB    - VARIABLE WIND DIRECTION
PRES   - MEAN SEA LEVEL PRESSURE IN INCHES OF MERCURY
         F - FALLING PRESSURE   R - RISING PRESSURE
         S - STEADY PRESSURE
VSB    - VISIBILITY IN MILES
HX     - HEAT INDEX IN FAHRENHEIT
WCI    - WIND CHILL INDEX IN FAHRENHEIT
TC     - TEMPERATURE IN CELSIUS WHICH IS ALSO KNOWN AS
         TEMPERATURE IN CENTIGRADE
AFB    - AIR FORCE BASE
         LUKE AFB IS LUKE AIR FORCE BASE
         DAVIS-MONTHAN IS DAVIS-MONTHAN AIR FORCE BASE
NAS    - NAVAL AIR STATION
         EL CENTRO NAS IS EL CENTRO NAVAL AIR STATION
N/A    - NOT AVAILABLE




USA.gov is the U.S. government's official web portal to all federal, state and local government web resources and services.